Location: PSU-Greenbush Astrophysical Observatory
(37.5140°N, 94.9880°W)
Time: 16:37:32
(UTC-06:00)

Transit 2A - Pass Details

Date: 24 January 2020
Orbit: 600 x 959 km, 66.7° (Epoch: 19 February)

Event Time Altitude Azimuth Distance (km) Brightness Sun altitude
Rises 20:46:22 0° 231° (SW) 2,918 9.6 -37.9°
Enters shadow 20:48:52 10° 242° (WSW) 1,990 8.7 -38.4°
Reaches altitude 10° 20:48:54 10° 242° (WSW) 1,980 - -38.4°
Maximum altitude 20:52:48 30° 304° (NW) 1,086 - -39.1°
Drops below altitude 10° 20:56:38 10° 7° (N) 1,945 - -39.9°
Sets 20:59:06 0° 18° (NNE) 2,858 - -40.4°
